Georgetown, DE

7:26 AM EST on February 25, 2017 (GMT -0500)
Sussex County

Weather History for KGED - February, 2014

Change the Weather History Date:

Friday, February 7, 2014

  Actual Average Record
Temperature  
Mean Temperature 33 °F 36 °F  
Max Temperature 42 °F 45 °F 69 °F (2008)
Min Temperature 23 °F 27 °F 2 °F (1996)
Degree Days  
Heating Degree Days 32 29  
Month to date heating degree days 192 203  
Since 1 July heating degree days 2738 2713  
Cooling Degree Days 0 0  
Month to date cooling degree days 0 0  
Year to date cooling degree days 0 0  
Moisture  
Dew Point 21 °F    
Average Humidity 66    
Maximum Humidity 88    
Minimum Humidity 44    
Precipitation  
Precipitation 0.00 in 0.09 in 0.96 in (1951)
Month to date precipitation 1.73 0.68  
Year to date precipitation 4.77 3.60  
Sea Level Pressure  
Sea Level Pressure 30.32 in    
Wind  
Wind Speed 2 mph (WNW)    
Max Wind Speed 10 mph    
Max Gust Speed 13 mph    
Visibility 10 miles    
Events      
T = Trace of Precipitation, MM = Missing Value Source: NWS Daily Summary

Daily Weather History Graph

Daily Weather History Graph

Search for Another Location

Airport or City:

Trip Planner

Search our weather history database for the weather conditions in past years. The results will help you decide how hot, cold, wet, or windy it might be!

Date:

Astronomy

Feb. 07, 2014 Rise Set
Actual Time 7:01 AM EST 5:30 PM EST
Civil Twilight 6:33 AM EST 5:57 PM EST
Nautical Twilight 6:02 AM EST 6:29 PM EST
Astronomical Twilight 5:31 AM EST 7:00 PM EST
Moon 11:40 AM EST (2/7) 1:14 AM EST (2/7)
Length of Visible Light 11h 24m
Length of Day
10h 28m
First Quarter, 59% of the Moon is Illuminated
Feb 7
First Quarter
Feb 14
Full
Feb 22
Last Quarter
Mar 1
New
Mar 8
First Quarter

Hourly Weather History & Observations

Time (EST) Temp. Windchill Dew Point Humidity Pressure Visibility Wind Dir Wind Speed Gust Speed Precip Events Conditions
12:54 AM 30.0 °F - 18.0 °F 61% 30.30 in 10.0 mi Calm Calm - N/A   Mostly Cloudy
1:54 AM 28.0 °F - 19.9 °F 72% 30.30 in 10.0 mi Calm Calm - N/A   Partly Cloudy
2:54 AM 28.0 °F - 19.9 °F 72% 30.31 in 10.0 mi Calm Calm - N/A   Clear
3:54 AM 27.0 °F - 19.9 °F 75% 30.31 in 10.0 mi Calm Calm - N/A   Clear
4:54 AM 25.0 °F - 19.0 °F 78% 30.31 in 10.0 mi Calm Calm - N/A   Clear
5:54 AM 24.1 °F - 19.9 °F 84% 30.32 in 9.0 mi Calm Calm - N/A   Clear
6:54 AM 23.0 °F - 19.9 °F 88% 30.35 in 8.0 mi Calm Calm - N/A   Clear
7:54 AM 25.0 °F - 21.0 °F 85% 30.37 in 6.0 mi Calm Calm - N/A   Scattered Clouds
8:54 AM 32.0 °F - 23.0 °F 69% 30.37 in 10.0 mi Calm Calm - N/A   Clear
9:54 AM 34.0 °F 31.0 °F 19.9 °F 56% 30.37 in 10.0 mi SSE 3.5 mph - N/A   Clear
10:54 AM 36.0 °F 33.3 °F 18.0 °F 48% 30.36 in 10.0 mi NW 3.5 mph - N/A   Clear
11:54 AM 37.9 °F - 19.0 °F 47% 30.33 in 10.0 mi Calm Calm - N/A   Clear
12:54 PM 39.0 °F 34.8 °F 19.0 °F 45% 30.30 in 10.0 mi Variable 5.8 mph - N/A   Clear
1:54 PM 39.0 °F 35.7 °F 19.9 °F 46% 30.29 in 10.0 mi WNW 4.6 mph - N/A   Clear
2:54 PM 41.0 °F 36.4 °F 21.9 °F 47% 30.28 in 10.0 mi Variable 6.9 mph - N/A   Clear
3:54 PM 41.0 °F 36.4 °F 21.0 °F 45% 30.28 in 10.0 mi WSW 6.9 mph - N/A   Clear
4:54 PM 39.9 °F 35.8 °F 21.0 °F 47% 30.28 in 10.0 mi West 5.8 mph - N/A   Clear
5:54 PM 37.0 °F - 23.0 °F 57% 30.31 in 10.0 mi Calm Calm - N/A   Clear
6:54 PM 34.0 °F - 23.0 °F 64% 30.32 in 10.0 mi Calm Calm - N/A   Clear
7:54 PM 30.0 °F - 23.0 °F 75% 30.33 in 10.0 mi Calm Calm - N/A   Clear
8:54 PM 28.9 °F - 23.0 °F 78% 30.33 in 9.0 mi Calm Calm - N/A   Clear
9:54 PM 30.0 °F 26.5 °F 21.9 °F 72% 30.35 in 10.0 mi North 3.5 mph - N/A   Clear
10:54 PM 26.1 °F - 21.0 °F 81% 30.34 in 9.0 mi Calm Calm - N/A   Clear
11:54 PM 26.1 °F - 21.0 °F 81% 30.34 in 9.0 mi Calm Calm - N/A   Clear